Location: Fairview
(40.8165°N, 122.7667°W)
Time: 15:39:56
(UTC+00:00)

USA 81 - Pass Details

Date: 13 June 2024
Orbit: 783 x 787 km, 85.0° (Epoch: 23 July)

Event Time Altitude Azimuth Distance (km) Brightness Sun altitude
Rises 11:58:16 0° 348° (NNW) 3,287 7.7 -7.1°
Reaches altitude 10° 12:00:43 10° 343° (NNW) 2,354 6.8 -6.7°
Maximum altitude 12:05:43 45° 272° (W) 1,066 4.5 -6.0°
Drops below altitude 10° 12:10:41 10° 201° (SSW) 2,335 6.0 -5.2°
Sets 12:13:06 0° 195° (SSW) 3,259 6.8 -4.9°
